Weather History for KADC - November, 2012

Change the Weather History Date:

Friday, November 30, 2012

  Actual Average Record
Temperature  
Mean Temperature 24 °F -  
Max Temperature 28 °F 29 °F 59 °F (1939)
Min Temperature 21 °F 11 °F -22 °F (1964)
Degree Days  
Heating Degree Days 40    
Moisture  
Dew Point 23 °F    
Average Humidity 93    
Maximum Humidity 100    
Minimum Humidity 86    
Precipitation  
Precipitation 0.00 in - - ()
Sea Level Pressure  
Sea Level Pressure 30.07 in    
Wind  
Wind Speed 9 mph (SE)    
Max Wind Speed 16 mph    
Max Gust Speed 22 mph    
Visibility 4 miles    
Events      
Averages and records for this station are not official NWS values.
T = Trace of Precipitation, MM = Missing Value Source: NWS Daily Summary

Daily Weather History Graph

Daily Weather History Graph

Search for Another Location

Airport or City:

Trip Planner

Search our weather history database for the weather conditions in past years. The results will help you decide how hot, cold, wet, or windy it might be!

Date:

Astronomy

Nov. 30, 2012 Rise Set
Actual Time 7:43 AM CST 4:35 PM CST
Civil Twilight 7:09 AM CST 5:10 PM CST
Nautical Twilight 6:31 AM CST 5:47 PM CST
Astronomical Twilight 5:55 AM CST 6:24 PM CST
Moon 6:32 PM CST (11/30) 9:15 AM CST (11/30)
Length of Visible Light 10h 00m
Length of Day
8h 52m
Waning Gibbous, 96% of the Moon is Illuminated
Nov 30
Waning Gibbous
Dec 6
Last Quarter
Dec 13
New
Dec 19
First Quarter
Dec 28
Full

Hourly Weather History & Observations

Time (CST) Temp. Windchill Dew Point Humidity Pressure Visibility Wind Dir Wind Speed Gust Speed Precip Events Conditions
12:15 AM 21.2 °F 10.9 °F 19.4 °F 93% 30.11 in 10.0 mi East 9.2 mph - N/A   Overcast
12:34 AM 21.2 °F 10.9 °F 19.4 °F 93% 30.12 in 10.0 mi East 9.2 mph - N/A   Overcast
12:53 AM 21.2 °F 10.1 °F 19.4 °F 93% 30.11 in 10.0 mi East 10.4 mph - N/A   Overcast
1:15 AM 21.2 °F 11.7 °F 19.4 °F 93% 30.11 in 10.0 mi East 8.1 mph - N/A   Overcast
1:34 AM 21.2 °F 10.9 °F 19.4 °F 93% 30.11 in 10.0 mi East 9.2 mph - N/A   Overcast
1:53 AM 21.2 °F 13.6 °F 19.4 °F 93% 30.13 in 10.0 mi East 5.8 mph - N/A   Overcast
2:15 AM 21.2 °F 14.9 °F 19.4 °F 93% 30.15 in 10.0 mi East 4.6 mph - N/A   Overcast
2:35 AM 21.2 °F 16.4 °F 19.4 °F 93% 30.15 in 10.0 mi East 3.5 mph - N/A   Overcast
2:53 AM 21.2 °F 14.9 °F 19.4 °F 93% 30.15 in 10.0 mi East 4.6 mph - N/A   Overcast
3:15 AM 23.0 °F 15.8 °F 19.4 °F 86% 30.14 in 10.0 mi East 5.8 mph - N/A   Overcast
3:35 AM 21.2 °F 12.6 °F 19.4 °F 93% 30.11 in 10.0 mi East 6.9 mph - N/A   Overcast
3:53 AM 21.2 °F 11.7 °F 19.4 °F 93% 30.10 in 10.0 mi East 8.1 mph - N/A   Overcast
4:15 AM 21.2 °F 12.6 °F 19.4 °F 93% 30.11 in 10.0 mi East 6.9 mph - N/A   Overcast
4:34 AM 21.2 °F 13.6 °F 19.4 °F 93% 30.11 in 10.0 mi East 5.8 mph - N/A   Overcast
4:53 AM 23.0 °F 15.8 °F 19.4 °F 86% 30.12 in 10.0 mi East 5.8 mph - N/A   Overcast
5:15 AM 23.0 °F 15.8 °F 19.4 °F 86% 30.12 in 10.0 mi East 5.8 mph - N/A   Overcast
5:34 AM 23.0 °F 13.9 °F 19.4 °F 86% 30.12 in 7.0 mi ESE 8.1 mph - N/A   Overcast
5:53 AM 23.0 °F 13.1 °F 19.4 °F 86% 30.12 in 7.0 mi ESE 9.2 mph - N/A   Overcast
6:15 AM 23.0 °F 13.9 °F 21.2 °F 93% 30.13 in 7.0 mi ESE 8.1 mph - N/A   Overcast
6:34 AM 23.0 °F 17.0 °F 21.2 °F 93% 30.14 in 5.0 mi ESE 4.6 mph - N/A   Overcast
6:53 AM 23.0 °F 15.8 °F 21.2 °F 93% 30.13 in 5.0 mi ESE 5.8 mph - N/A   Overcast
7:15 AM 23.0 °F 15.8 °F 21.2 °F 93% 30.12 in 4.0 mi East 5.8 mph - N/A   Overcast
7:34 AM 23.0 °F 14.7 °F 21.2 °F 93% 30.11 in 3.0 mi East 6.9 mph - N/A   Overcast
7:53 AM 23.0 °F 13.9 °F 21.2 °F 93% 30.12 in 1.8 mi ESE 8.1 mph - N/A   Overcast
8:15 AM 23.0 °F 13.1 °F 21.2 °F 93% 30.13 in 1.2 mi ESE 9.2 mph - N/A   Overcast
8:35 AM 23.0 °F 13.1 °F 21.2 °F 93% 30.12 in 1.2 mi ESE 9.2 mph - N/A   Overcast
8:53 AM 23.0 °F 12.4 °F 21.2 °F 93% 30.12 in 1.2 mi ESE 10.4 mph - N/A   Overcast
9:14 AM 23.0 °F 11.7 °F 21.2 °F 93% 30.12 in 1.5 mi ESE 11.5 mph - N/A   Overcast
9:35 AM 23.0 °F 13.1 °F 21.2 °F 93% 30.15 in 1.8 mi SE 9.2 mph - N/A   Overcast
9:53 AM 24.8 °F 16.1 °F 23.0 °F 93% 30.15 in 1.5 mi SE 8.1 mph - N/A   Overcast
10:15 AM 24.8 °F 14.6 °F 23.0 °F 93% 30.15 in 3.0 mi SE 10.4 mph - N/A   Overcast
10:35 AM 24.8 °F 15.3 °F 23.0 °F 93% 30.15 in 3.0 mi SSE 9.2 mph - N/A   Overcast
10:53 AM 24.8 °F 14.6 °F 23.0 °F 93% 30.14 in 3.0 mi SSE 10.4 mph - N/A   Overcast
11:15 AM 24.8 °F 13.4 °F 23.0 °F 93% 30.12 in 3.0 mi SE 12.7 mph - N/A   Overcast
11:35 AM 24.8 °F 13.4 °F 23.0 °F 93% 30.12 in 3.0 mi SSE 12.7 mph 17.3 mph N/A   Overcast
11:53 AM 24.8 °F 14.0 °F 23.0 °F 93% 30.12 in 3.0 mi SSE 11.5 mph - N/A   Overcast
12:15 PM 24.8 °F 15.3 °F 23.0 °F 93% 30.10 in 3.0 mi SSE 9.2 mph - N/A   Overcast
12:35 PM 24.8 °F 14.0 °F 23.0 °F 93% 30.09 in 3.0 mi SE 11.5 mph - N/A   Overcast
12:53 PM 26.6 °F 16.8 °F 24.8 °F 93% 30.08 in 3.0 mi SE 10.4 mph - N/A   Overcast
1:15 PM 26.6 °F 18.2 °F 24.8 °F 93% 30.09 in 3.0 mi SE 8.1 mph - N/A   Overcast
1:35 PM 26.6 °F 16.8 °F 24.8 °F 93% 30.08 in 2.5 mi SSE 10.4 mph - N/A   Overcast
1:53 PM 26.6 °F 18.2 °F 24.8 °F 93% 30.08 in 3.0 mi South 8.1 mph - N/A   Overcast
2:15 PM 26.6 °F 17.5 °F 24.8 °F 93% 30.08 in 3.0 mi SSE 9.2 mph - N/A   Overcast
2:35 PM 26.6 °F 16.2 °F 24.8 °F 93% 30.07 in 2.5 mi SE 11.5 mph - N/A   Overcast
2:53 PM 26.6 °F 16.8 °F 24.8 °F 93% 30.07 in 2.5 mi ESE 10.4 mph - N/A   Overcast
3:15 PM 26.6 °F 15.7 °F 24.8 °F 93% 30.06 in 2.5 mi SE 12.7 mph - N/A   Overcast
3:35 PM 26.6 °F 16.2 °F 24.8 °F 93% 30.05 in 2.5 mi SE 11.5 mph - N/A   Overcast
3:53 PM 26.6 °F 16.2 °F 24.8 °F 93% 30.05 in 3.0 mi SE 11.5 mph - N/A   Overcast
4:15 PM 26.6 °F 16.8 °F 24.8 °F 93% 30.05 in 3.0 mi SE 10.4 mph - N/A   Overcast
4:35 PM 26.6 °F 16.8 °F 24.8 °F 93% 30.04 in 3.0 mi SE 10.4 mph - N/A   Overcast
4:53 PM 26.6 °F 16.2 °F 24.8 °F 93% 30.04 in 4.0 mi SE 11.5 mph 17.3 mph N/A   Overcast
5:15 PM 26.6 °F 15.7 °F 24.8 °F 93% 30.02 in 3.0 mi SE 12.7 mph 19.6 mph N/A   Overcast
5:35 PM 26.6 °F 15.7 °F 24.8 °F 93% 30.02 in 3.0 mi SE 12.7 mph 18.4 mph N/A   Overcast
5:53 PM 26.6 °F 16.2 °F 24.8 °F 93% 30.01 in 3.0 mi SE 11.5 mph - N/A   Overcast
6:15 PM 26.6 °F 14.7 °F 24.8 °F 93% 30.01 in 3.0 mi SE 15.0 mph - N/A   Overcast
6:35 PM 26.6 °F 16.2 °F 24.8 °F 93% 30.01 in 2.5 mi SE 11.5 mph - N/A   Overcast
6:53 PM 26.6 °F 16.2 °F 24.8 °F 93% 29.99 in 2.5 mi SE 11.5 mph - N/A   Overcast
7:14 PM 26.6 °F 15.7 °F 26.6 °F 100% 29.99 in 2.0 mi SE 12.7 mph 19.6 mph N/A   Overcast
7:35 PM 26.6 °F 14.3 °F 26.6 °F 100% 29.97 in 1.8 mi SE 16.1 mph - N/A   Overcast
7:53 PM 26.6 °F 15.7 °F 26.6 °F 100% 29.96 in 1.2 mi SE 12.7 mph - N/A   Overcast
8:15 PM 26.6 °F 15.7 °F 26.6 °F 100% 29.96 in 1.2 mi SE 12.7 mph 21.9 mph N/A   Overcast
8:35 PM 26.6 °F 16.2 °F 26.6 °F 100% 29.97 in 1.2 mi SE 11.5 mph 19.6 mph N/A   Overcast
8:53 PM 28.4 °F 16.6 °F 26.6 °F 93% 29.96 in 1.2 mi SE 16.1 mph 21.9 mph N/A   Overcast
9:14 PM 28.4 °F 17.0 °F 26.6 °F 93% 29.95 in 1.5 mi SE 15.0 mph - N/A   Overcast
9:35 PM 28.4 °F 17.5 °F 26.6 °F 93% 29.95 in 1.8 mi SE 13.8 mph 21.9 mph N/A   Overcast
9:53 PM 28.4 °F 17.0 °F 26.6 °F 93% 29.94 in 1.8 mi SE 15.0 mph - N/A   Overcast
10:15 PM 28.4 °F 19.1 °F 26.6 °F 93% 29.94 in 1.8 mi SE 10.4 mph - N/A   Overcast
10:35 PM 28.4 °F 18.5 °F 26.6 °F 93% 29.94 in 2.0 mi SE 11.5 mph - N/A   Overcast
10:53 PM 28.4 °F 19.1 °F 26.6 °F 93% 29.94 in 2.0 mi SE 10.4 mph - N/A   Overcast
11:15 PM 28.4 °F 18.5 °F 26.6 °F 93% 29.94 in 2.0 mi SSE 11.5 mph - N/A   Overcast
11:35 PM 28.4 °F 18.5 °F 26.6 °F 93% 29.93 in 2.0 mi SSE 11.5 mph - N/A   Overcast
11:53 PM 28.4 °F 18.0 °F 28.4 °F 100% 29.93 in 2.0 mi SSE 12.7 mph - N/A   Overcast